Regional Weather Roundup
Issued by NWS Mt. Holly, NJ

Home | Current Version | Previous Version | Text Only | Print | Product List | Glossary On
Versions: 1 2 3 4 5 6 7 8 9 10 11 12 13 14 15 16 17 18 19 20 21 22 23 24 25 26 27
000
ASUS41 KPHI 200911
RWRPHI

REGIONAL WEATHER ROUNDUP
NATIONAL WEATHER SERVICE MOUNT HOLLY NJ
400 AM EST FRI JAN 20 2017

NOTE:  "FAIR" INDICATES FEW OR NO CLOUDS BELOW 12,000 FEET WITH NO
SIGNIFICANT WEATHER AND/OR OBSTRUCTIONS TO VISIBILITY.

 * = STATION DOES NOT REPORT PRECIPITATION (E.G. RAIN, SNOW, ETC.)
        OR FOG.

NJZ015>026-201000-
SOUTHERN NEW JERSEY

CITY           SKY/WX    TMP DP  RH WIND       PRES   REMARKS
POMONA         CLOUDY    30  26  85 CALM      30.02F
WILDWOOD*      PTCLDY    31  30  96 CALM      30.03S
MILLVILLE      PTCLDY    29  28  96 CALM      30.02F
WRIGHTSTOWN    CLEAR     30  28  94 CALM      29.99F
MOUNT HOLLY    CLOUDY    28  27  96 CALM      30.02F
TRENTON        CLOUDY    30  28  92 NW3       30.01S

$$
NJZ001>014-201000-
NORTHERN NEW JERSEY

CITY           SKY/WX    TMP DP  RH WIND       PRES   REMARKS
SUSSEX         CLOUDY    33  32  96 CALM      30.01S
ANDOVER*         N/A     34  31  88 CALM      30.00F
MORRISTOWN     CLOUDY    34  34 100 CALM      30.02F
NEWARK         CLOUDY    42  33  70 CALM      30.02S
TETERBORO      CLOUDY    41  32  70 NE5       30.02F
CALDWELL       CLOUDY    37  33  85 CALM      30.03S
SOMERVILLE     CLOUDY    32  29  88 CALM      30.01S
ALLAIRE*       CLOUDY    33  31  92 CALM      30.03S
TOMS RIVER*    MOCLDY    26  25  96 CALM      30.03S

$$
PAZ043-044-047-054-055-060>062-066>071-201000-
EASTERN PENNSYLVANIA

CITY           SKY/WX    TMP DP  RH WIND       PRES   REMARKS
PHILADELPHIA   CLOUDY    34  32  92 CALM      30.03F
NORTH PHILA    CLOUDY    32  30  92 CALM      30.03F
BLUE BELL*     CLOUDY    28  28 100 CALM      30.01F
DOYLESTOWN     PTCLDY    30  28  92 CALM      30.00F
QUAKERTOWN*    CLOUDY    27  25  93 CALM      30.01F
PERKASIE*      FAIR      27  27 100 CALM      30.01F FOG
POTTSTOWN      CLOUDY    27  26  96 CALM      30.02F FOG
LANCASTER      MOCLDY    31  31 100 E5        29.99F FOG     WCI  26
COATESVILLE      N/A    N/A N/A N/A MISG        N/A
READING        PTCLDY    28  28 100 CALM      29.99F
ALLENTOWN      PTCLDY    31  27  85 CALM      30.01F
MOUNT POCONO   CLOUDY    31  29  92 S5        29.94F WCI  26
HAZLETON       CLOUDY    32  30  93 E3        29.97F
LEHIGHTON        N/A     30  30 100 CALM      30.02F FOG
WILKES BARRE   CLOUDY    36  32  85 SE3       29.97F

$$
DEZALL-MDZ008-012-015-019-020-201000-
DELAWARE AND EASTERN MARYLAND

CITY           SKY/WX    TMP DP  RH WIND       PRES   REMARKS
WILMINGTON     CLOUDY    32  31  96 NE3       30.02F
DOVER          CLEAR     34  34 100 CALM      30.00F
GEORGETOWN     CLOUDY    33  31  92 CALM      30.02F
EASTON         PTCLDY    35  33  90 CALM      30.03F
ABERDEEN       CLOUDY    31  31  99 CALM      30.01F
PATUXENT       CLOUDY    34  34 100 CALM      29.99F
OCEAN CITY     PTCLDY    33  32  96 CALM      30.01F
WALLOPS ISLAND CLOUDY    35  35 100 CALM      30.02F
CAMBRIDGE      CLOUDY    32  32 100 CALM      29.99F
SALISBURY      CLOUDY    32  30  92 E3        30.00F

$$
PAZ001-021-NYZ056-072-MDZ011-DCZ001-201000-
OTHER NEARBY LOCATIONS

CITY           SKY/WX    TMP DP  RH WIND       PRES   REMARKS
HARRISBURG     CLOUDY    33  31  92 CALM      29.98F
STATE COLLEGE  CLOUDY    28  28  98 CALM      29.92F FOG
WILLIAMSPORT   FOG       31  30  96 CALM      29.97F VSB 1/4
BINGHAMTON     CLOUDY    31  30  96 S5        29.93F WCI  26
NEW YORK CITY  CLOUDY    40  30  67 E6        30.04F
BALTIMORE      MOCLDY    34  33  96 CALM      29.99F
WASHINGTON DC  CLOUDY    40  37  89 NE5       29.99F

$$




USA.gov is the U.S. government's official web portal to all federal, state and local government web resources and services.